Regional Weather Roundup
Issued by NWS

Home | Current Version | Previous Version | Graphics & Text | Print | Product List | Glossary On
Versions: 1 2 3 4 5 6 7 8 9 10 11 12 13 14 15 16 17 18 19 20 21 22 23 24 25 26 27 28 29 30 31 32 33 34 35 36 37 38 39 40 41 42 43 44 45 46 47 48 49 50
000
ASUS43 KTOP 030659
RWRKS

WEATHER ROUNDUP FOR KANSAS
NATIONAL WEATHER SERVICE GOODLAND KS
200 AM CDT MON AUG 03 2015

NOTE:  "FAIR" INDICATES FEW OR NO CLOUDS BELOW 12,000 FEET WITH NO
SIGNIFICANT WEATHER AND/OR OBSTRUCTIONS TO VISIBILITY.

KSZ001>006-013>018-027>032-041>047-030800-
NORTHWEST KANSAS

CITY           SKY/WX    TMP DP  RH WIND       PRES   REMARKS
GOODLAND       PTCLDY    69  57  65 S13       30.00F
HAYS           PTCLDY    75  63  64 S5        29.93R
HILL CITY      CLEAR     69  63  81 CALM      29.93R
RUSSELL        PTCLDY    75  68  78 S8        29.90S
$$

KSZ061>065-074>080-084>089-030800-
SOUTHWEST KANSAS

CITY           SKY/WX    TMP DP  RH WIND       PRES   REMARKS
DODGE CITY     CLOUDY    72  66  81 S3        29.96S
ELKHART          N/A     70  63  79 S8          N/A
GARDEN CITY    CLOUDY    71  66  84 S6        29.96F
GREAT BEND     PTCLDY    73  66  78 S9        29.92S
LIBERAL        MOCLDY    73  63  68 S9        29.98F
$$

KSZ066>073-081>083-090>101-030800-
SOUTHEAST KANSAS

CITY           SKY/WX    TMP DP  RH WIND       PRES   REMARKS
CHANUTE        CLEAR     71  65  81 S8        29.91F
COFFEYVILLE    PTCLDY    70  66  87 S3        29.91F
HUTCHINSON     MOCLDY    74  68  81 S7        29.93R
MEDICINE LODGE   N/A     74  69  85 E6        29.92S
NEWTON         CLOUDY    73  63  68 S7        29.94F
PARSONS        PTCLDY    69  66  90 CALM      29.92F
WICHITA INTL   MOCLDY    73  66  78 S6        29.92F
WICHITA JABRA  PTCLDY    73  66  78 S7        29.92S
WINFIELD       CLEAR     73  67  81 SE3       29.93S
$$

KSZ007>012-019>026-033>040-048>060-102>105-030800-
NORTHEAST KANSAS

CITY           SKY/WX    TMP DP  RH WIND       PRES   REMARKS
CONCORDIA      PTCLDY    77  69  76 SW10      29.88S
EMPORIA        PTCLDY    71  67  87 S8        29.91R
LAWRENCE       PTCLDY    73  68  84 CALM      29.90R
MANHATTAN      CLEAR     76  69  79 SW8       29.88S
OLATHE IND     CLEAR     74  65  73 S6        29.92S
OLATHE EXE     CLEAR     74  65  73 SW6       29.91S
SALINA         CLEAR     74  69  85 S5        29.89S
TOPEKA BILLARD PTCLDY    75  70  84 SE3       29.90R
TOPEKA FORBES  PTCLDY    76  68  76 CALM      29.90R
$$



USA.gov is the U.S. government's official web portal to all federal, state and local government web resources and services.